Flag for U.S.A. Weather past 2 weeks in Bismarck, North Dakota, U.S.A.

Now
2 °F

Mostly cloudy.


Feels Like: -9 °F
Forecast: -10 / -1 °F
Wind: 6 mph from Northeast

Location: Bismarck Municipal Airport

Current Time: Dec 28, 2014 at 11:22:24 PM

Latest Report: Dec 28, 2014 at 10:52 PM


Visibility: 10 mi

Pressure: 30.57 "Hg

Humidity: 76%

Dew point: -4 °F

Location of BismarckLocation

Historic Weather in Bismarck — Graph

°F

Bismarck temperature yesterday

Maximum temperature yesterday: 30 °F (at 2:52 PM)
Minimum temperature yesterday: 0 °F (at 2:52 AM)
Average temperature yesterday: 15 °F

Past Weeks' High & Low Weather Summary

 TemperatureHumidityPressure
High38 °F (Dec 19, 2:52 PM)100% (Dec 14, 5:52 AM)30.54 "Hg (Dec 14, 5:52 AM)
Low-1 °F (Dec 26, 10:52 PM)66% (Dec 27, 1:52 PM)29.44 "Hg (Dec 22, 2:02 AM)
Average22 °F86%30.03 "Hg
* Reported Dec 13 9:52 PM — Dec 28 9:52 PM, Bismarck, Weather by CustomWeather, © 2014

Note: Actual official high and low records may vary slightly from our data, if they occured in-between our weather recording intervals... More about our weather records

Advertising

Bismarck weather history for previous 24 hours

 ConditionsComfort  
Time TempWeatherWind HumidityBarometerVisibility
9:52 PM
Dec 28
2 °FMostly cloudy.9 mph76%30.54 "Hg10 mi
8:52 PM2 °FOvercast.10 mph80%30.52 "Hg10 mi
7:52 PM3 °FOvercast.12 mph79%30.48 "Hg10 mi
6:52 PM4 °FOvercast.12 mph80%30.45 "Hg10 mi
5:52 PM6 °FOvercast.12 mph76%30.41 "Hg10 mi
4:52 PM7 °FOvercast.12 mph83%30.37 "Hg10 mi
3:52 PM8 °FLight snow. Ice fog.12 mph83%30.35 "Hg6 mi
2:52 PM9 °FLight snow. Overcast.13 mph80%30.32 "Hg6 mi
1:52 PM10 °FLight snow. Overcast.10 mph80%30.30 "Hg4 mi
12:52 PM10 °FOvercast.14 mph80%30.29 "Hg8 mi
11:52 AM10 °FLight snow. Mostly cloudy.12 mph84%30.30 "Hg7 mi
10:52 AM10 °FOvercast.14 mph84%30.30 "Hg10 mi
9:52 AM10 °FOvercast.13 mph84%30.28 "Hg10 mi
8:52 AM9 °FOvercast.7 mph88%30.24 "Hg10 mi
7:52 AM12 °FLight snow. Ice fog.8 mph88%30.22 "Hg5 mi
6:58 AM14 °FLight snow. Ice fog.10 mph84%30.10 "Hg2 mi
5:52 AM14 °FLight snow. Ice fog.10 mph87%30.17 "Hg4 mi
4:52 AM17 °FLight snow. Ice fog.10 mph88%30.16 "Hg2 mi
3:52 AM16 °FLight snow. Ice fog.3 mph92%30.14 "Hg4 mi
2:52 AM16 °FLight snow. Ice fog.3 mph92%30.13 "Hg4 mi
1:52 AM16 °FMostly cloudy.3 mph92%30.12 "Hg8 mi
12:52 AM15 °FOvercast.3 mph91%30.13 "Hg10 mi
11:52 PM
Dec 27
15 °FOvercast.No wind87%30.14 "Hg10 mi
Weather by CustomWeather, © 2014

See weather overviewHow to use our weather pages